OK1HOL-14 Weather Reports


time (UTC)temp
C
wind
direction
speed
KPH
gust
KPH
rain 1hr
cm
rain 24hr
cm
rain mn
cm
humidity
%
barometer
mb
20260506230335 12 0.0 0.0 0.00 0.00 0.00 92 1008.3
20260506225334 12 0.0 0.0 0.00 0.00 0.00 92 1008.4
20260506224334 12 0.0 0.0 0.00 0.00 0.00 91 1008.3
20260506222334 13 0.0 0.0 0.00 0.00 0.00 91 1008.2
20260506221334 13 0.0 0.0 0.00 0.00 0.00 91 1008.3
20260506220334 13 0.0 0.0 0.00 0.00 0.00 90 1008.2
20260506214334 13 0.0 0.0 0.00 0.00 0.00 91 1008.2
20260506213334 13 0.0 0.0 0.00 0.00 0.00 90 1008.3
20260506212334 13 0.0 0.0 0.00 0.00 0.00 89 1008.1
20260506210334 13 0.0 0.0 0.00 0.00 0.00 88 1007.8
20260506205334 13 0.0 0.0 0.00 0.00 0.00 88 1007.7
20260506204334 13 0.0 0.0 0.00 0.00 0.00 88 1007.4
20260506202334 13 0.0 0.0 0.00 0.00 0.00 88 1007.8
20260506201334 13 0.0 0.0 0.00 0.00 0.00 88 1007.9
20260506200334 13 0.0 0.0 0.00 0.00 0.00 87 1007.8
20260506195342 13 0.0 0.0 0.00 0.00 0.00 87 1007.2
20260506194334 13 0.0 0.0 0.00 0.00 0.00 84 1006.8
20260506193335 13 0.0 0.0 0.00 0.00 0.00 84 1006.8
20260506192334 14 0.0 0.0 0.00 0.00 0.00 86 1007.3
20260506191342 14 0.0 0.0 0.00 0.00 0.00 87 1006.9
20260506190335 14 0.0 0.0 0.00 0.00 0.00 86 1006.8
20260506185335 15 0.0 0.0 0.00 0.00 0.00 88 1006.7
20260506184336 14 0.0 0.0 0.00 0.00 0.00 87 1006.5
20260506182335 15 0.0 0.0 0.00 0.00 0.00 85 1006.3
20260506181340 15 0.0 0.0 0.00 0.00 0.00 81 1006.2
20260506180335 15 0.0 0.0 0.00 0.00 0.00 80 1006.1
20260506174335 16 0.0 0.0 0.00 0.00 0.00 70 1005.8
20260506173335 16 0.0 0.0 0.00 0.00 0.00 70 1005.8
20260506172335 16 0.0 0.0 0.00 0.00 0.00 70 1005.8
20260506170335 17 0.0 0.0 0.00 0.00 0.00 68 1005.8
20260506165335 17 0.0 0.0 0.00 0.00 0.00 71 1005.7
20260506164335 17 0.0 0.0 0.00 0.00 0.00 71 1006.1
20260506162335 17 0.0 0.0 0.00 0.00 0.00 66 1005.9
20260506161335 17 0.0 0.0 0.00 0.00 0.00 65 1006.0
20260506160335 18 0.0 0.0 0.00 0.00 0.00 65 1006.0
20260506154335 18 0.0 0.0 0.00 0.00 0.00 58 1006.4
20260506153335 18 0.0 0.0 0.00 0.00 0.00 58 1006.6
20260506152335 18 0.0 0.0 0.00 0.00 0.00 59 1006.9
20260506151427 18 0.0 0.0 0.00 0.00 0.00 59 1007.1
20260506150334 18 0.0 0.0 0.00 0.00 0.00 59 1007.1
20260506145334 19 0.0 0.0 0.00 0.00 0.00 58 1007.1
20260506144334 20 0.0 0.0 0.00 0.00 0.00 56 1007.0
20260506143341 20 0.0 0.0 0.00 0.00 0.00 55 1007.1
20260506142334 20 0.0 0.0 0.00 0.00 0.00 55 1007.0
20260506141334 20 0.0 0.0 0.00 0.00 0.00 53 1007.0
20260506140334 20 0.0 0.0 0.00 0.00 0.00 52 1007.1
20260506135341 20 0.0 0.0 0.00 0.00 0.00 53 1007.2
20260506134334 21 0.0 0.0 0.00 0.00 0.00 52 1007.3
20260506133334 21 0.0 0.0 0.00 0.00 0.00 53 1007.2
20260506132334 20 0.0 0.0 0.00 0.00 0.00 53 1007.2
20260506131341 20 0.0 0.0 0.00 0.00 0.00 53 1007.4
20260506130334 20 0.0 0.0 0.00 0.00 0.00 53 1007.5
20260506125334 20 0.0 0.0 0.00 0.00 0.00 54 1007.6
20260506124334 20 0.0 0.0 0.00 0.00 0.00 54 1007.8
20260506123341 20 0.0 0.0 0.00 0.00 0.00 53 1007.9
20260506122334 20 0.0 0.0 0.00 0.00 0.00 56 1008.0
20260506121334 20 0.0 0.0 0.00 0.00 0.00 56 1008.1
20260506120334 20 0.0 0.0 0.00 0.00 0.00 56 1008.1
20260506114334 20 0.0 0.0 0.00 0.00 0.00 56 1008.1
20260506113334 19 0.0 0.0 0.00 0.00 0.00 57 1008.1
20260506112333 19 0.0 0.0 0.00 0.00 0.00 58 1008.2
20260506111341 18 0.0 0.0 0.00 0.00 0.00 59 1008.4
20260506110333 18 0.0 0.0 0.00 0.00 0.00 59 1008.3
20260506105333 18 0.0 0.0 0.00 0.00 0.00 59 1008.4
20260506104341 18 0.0 0.0 0.00 0.00 0.00 60 1008.4
20260506103333 18 0.0 0.0 0.00 0.00 0.00 61 1008.4
20260506102333 17 0.0 0.0 0.00 0.00 0.00 61 1008.5
20260506101341 17 0.0 0.0 0.00 0.00 0.00 62 1008.5
20260506100333 17 0.0 0.0 0.00 0.00 0.00 63 1008.5
20260506095333 17 0.0 0.0 0.00 0.00 0.00 63 1008.4
20260506094341 17 0.0 0.0 0.00 0.00 0.00 64 1008.3
20260506093333 17 0.0 0.0 0.00 0.00 0.00 65 1008.3
20260506092333 17 0.0 0.0 0.00 0.00 0.00 65 1008.3
20260506091341 16 0.0 0.0 0.00 0.00 0.00 66 1008.3
20260506090333 16 0.0 0.0 0.00 0.00 0.00 67 1008.2
20260506085334 16 0.0 0.0 0.00 0.00 0.00 69 1008.2
20260506084343 15 0.0 0.0 0.00 0.00 0.00 71 1008.2
20260506083338 15 0.0 0.0 0.00 0.00 0.00 73 1008.3
20260506082333 15 0.0 0.0 0.00 0.00 0.00 74 1008.1
20260506081341 15 0.0 0.0 0.00 0.00 0.00 75 1008.1
20260506080333 15 0.0 0.0 0.00 0.00 0.00 74 1008.0
20260506073333 14 0.0 0.0 0.00 0.00 0.00 80 1007.9
20260506072333 13 0.0 0.0 0.00 0.00 0.00 80 1008.0
20260506071341 13 0.0 0.0 0.00 0.00 0.00 81 1008.0
20260506070333 13 0.0 0.0 0.00 0.00 0.00 81 1007.9
20260506062333 12 0.0 0.0 0.00 0.00 0.00 84 1007.8
20260506061342 12 0.0 0.0 0.00 0.00 0.00 84 1007.7
20260506060333 12 0.0 0.0 0.00 0.00 0.00 85 1007.7
20260506051341 12 0.0 0.0 0.00 0.00 0.00 88 1007.7
20260506050333 11 0.0 0.0 0.00 0.00 0.00 88 1007.6
20260506044341 11 0.0 0.0 0.00 0.00 0.00 89 1007.4
20260506043333 11 0.0 0.0 0.00 0.00 0.00 89 1007.4
20260506042333 11 0.0 0.0 0.00 0.00 0.00 89 1007.4
20260506041341 11 0.0 0.0 0.00 0.00 0.00 89 1007.5
20260506040333 11 0.0 0.0 0.00 0.00 0.00 90 1007.4
20260506035333 11 0.0 0.0 0.00 0.00 0.00 89 1007.2
20260506034341 11 0.0 0.0 0.00 0.00 0.00 89 1007.1
20260506033333 11 0.0 0.0 0.00 0.00 0.00 89 1007.2
20260506032333 11 0.0 0.0 0.00 0.00 0.00 89 1007.2
20260506031357 11 0.0 0.0 0.00 0.00 0.00 90 1007.2
20260506030333 11 0.0 0.0 0.00 0.00 0.00 90 1007.3
20260506025333 11 0.0 0.0 0.00 0.00 0.00 90 1007.2
20260506024333 11 0.0 0.0 0.00 0.00 0.00 90 1007.3
20260506023340 11 0.0 0.0 0.00 0.00 0.00 90 1007.3
20260506022333 11 0.0 0.0 0.00 0.00 0.00 90 1007.4
20260506021333 11 0.0 0.0 0.00 0.00 0.00 90 1007.4
20260506020333 11 0.0 0.0 0.00 0.00 0.00 90 1007.5
20260506015339 11 0.0 0.0 0.00 0.00 0.00 91 1007.5
20260506014333 11 0.0 0.0 0.00 0.00 0.00 91 1007.5
20260506013333 11 0.0 0.0 0.00 0.00 0.00 91 1007.4
20260506012332 11 0.0 0.0 0.00 0.00 0.00 91 1007.3
20260506011339 12 0.0 0.0 0.00 0.00 0.00 91 1007.3
20260506010333 12 0.0 0.0 0.00 0.00 0.00 91 1007.2
20260506005332 12 0.0 0.0 0.00 0.00 0.00 92 1007.3
20260506004333 12 0.0 0.0 0.00 0.00 0.00 91 1007.2
20260506003339 12 0.0 0.0 0.00 0.00 0.00 90 1007.3
20260506002333 12 0.0 0.0 0.00 0.00 0.00 89 1007.3
20260506001332 12 0.0 0.0 0.00 0.00 0.00 89 1007.4
20260506000332 12 0.0 0.0 0.00 0.00 0.00 89 1007.5
20260505234332 12 0.0 0.0 0.00 0.00 0.00 89 1007.5
20260505233332 13 0.0 0.0 0.00 0.00 0.00 88 1007.5
20260505232332 13 0.0 0.0 0.00 0.00 0.00 88 1007.6